Location: Wildlife_Club
(35.6000°N, 81.4330°W)
Time: 04:48:08
(UTC-04:00)

Amateur Radio Satellites - All Passes

Search period start: 24 July 2016 04:18
Search period end: 25 July 2016 04:18
Location: Wildlife_Club, 35.6000°N, 81.4330°W

Satellite Date Start Highest point End Downlink Frequencies (MHz)
Time Altitude Azimuth
STARS 24 Jul 04:24:39 04:28:30 31° 71° (ENE) 04:32:24 437.465
ITUPSAT 1 24 Jul 04:29:36 04:31:41 13° 268° (W) 04:33:46 437.325
ITAMSAT 1 24 Jul 04:53:04 04:58:05 51° 288° (WNW) 05:03:04 435.822/435.867
CUBESAT XI-V 24 Jul 04:53:49 04:56:33 16° 67° (ENE) 04:59:18 437.345
JUGNU 24 Jul 05:00:22 05:03:55 16° 176° (S) 05:07:28 437.505
ISS 24 Jul 05:01:23 05:03:26 15° 28° (NNE) 05:05:28 145.825
KKS-1 24 Jul 05:12:05 05:16:05 33° 262° (W) 05:20:06 437.445
MOZHAYETS 4 24 Jul 05:20:05 05:24:04 28° 264° (W) 05:28:05
SRMSAT 24 Jul 05:24:44 05:25:24 10° 165° (SSE) 05:26:02 437.500
Cosmos 2499 24 Jul 05:32:41 05:39:03 28° 276° (W) 05:45:05 435.465 / 435.565
DANDE 24 Jul 05:36:26 05:43:01 89° 275° (W) 05:47:56 436.750
BEESAT 2 24 Jul 05:47:38 05:51:38 81° 60° (ENE) 05:55:36 435.950
BEESAT 3 24 Jul 05:49:03 05:52:51 46° 245° (WSW) 05:56:38 437.485
CUSAT 1 24 Jul 05:51:25 05:54:49 19° 280° (W) 05:57:41 437.405
STARS 24 Jul 06:01:44 06:04:53 19° 265° (W) 06:08:03 437.465
AO-7 24 Jul 06:02:32 06:10:37 55° 293° (WNW) 06:18:38 29.400- 29.500
PCSat 24 Jul 06:03:13 06:08:33 56° 61° (ENE) 06:13:51 145.827
GONETS M04 24 Jul 06:17:29 06:19:17 11° 284° (WNW) 06:21:07
CUBESAT XI-V 24 Jul 06:29:07 06:33:32 45° 261° (W) 06:37:58 437.345
HORYU 2 24 Jul 06:29:41 06:34:11 86° 282° (WNW) 06:38:38 437.375
STRAND 1 24 Jul 06:34:07 06:36:15 13° 63° (ENE) 06:38:22 437.568
ISS 24 Jul 06:36:55 06:40:08 62° 224° (SW) 06:43:20 145.825
NOAA 15 24 Jul 06:38:00 06:42:04 23° 95° (E) 06:46:08 137.62
JUGNU 24 Jul 06:48:50 06:52:10 15° 186° (S) 06:55:30 437.505
LilacSat-2 24 Jul 06:50:36 06:53:14 17° 94° (E) 06:55:51 437.200
GOMX 1 24 Jul 06:52:36 06:56:14 19° 94° (E) 06:59:57 467.674
O/OREOS (USA 219) 24 Jul 06:56:16 06:58:43 14° 58° (ENE) 07:01:10 437.305
DOVE 4 24 Jul 07:05:37 07:07:14 11° 91° (E) 07:08:52 437.250
RS-15 24 Jul 07:06:46 07:17:05 43° 107° (ESE) 07:27:52 29.354- 29.394
BRITE-PL 24 Jul 07:09:02 07:13:47 63° 101° (E) 07:18:54 437.365/2234.400
SRMSAT 24 Jul 07:10:16 07:13:46 16° 175° (S) 07:17:15 437.500
AIST 2 24 Jul 07:18:15 07:22:04 33° 55° (NE) 07:25:51 435.215
Cubesat XI-IV 24 Jul 07:20:12 07:25:18 44° 99° (E) 07:30:21 437.490
CUTE-I 24 Jul 07:44:51 07:50:13 78° 103° (ESE) 07:55:32 437.470
PCSat 24 Jul 07:48:05 07:51:25 17° 256° (WSW) 07:54:44 145.827
NOAA 18 24 Jul 07:50:58 07:56:33 85° 104° (ESE) 08:02:04 137.9125
STRAND 1 24 Jul 08:09:37 08:14:46 72° 258° (WSW) 08:19:55 437.568
NOAA 15 24 Jul 08:17:05 08:21:54 38° 290° (WNW) 08:26:44 137.62
CANX-2 24 Jul 08:23:14 08:25:50 16° 93° (E) 08:28:24 2200.000
LilacSat-2 24 Jul 08:24:15 08:27:31 26° 288° (WNW) 08:30:43 437.200
GOMX 1 24 Jul 08:29:39 08:34:21 43° 287° (WNW) 08:39:20 467.674
SO-50 24 Jul 08:32:47 08:36:23 21° 110° (ESE) 08:39:58 436.795
O/OREOS (USA 219) 24 Jul 08:34:01 08:38:24 50° 254° (WSW) 08:42:48 437.305
CUTE 1.7 + AOD 2 24 Jul 08:36:55 08:40:02 20° 95° (E) 08:43:08 437.475
DOVE 4 24 Jul 08:40:10 08:45:16 73° 284° (WNW) 08:50:31 437.250
BRITE-PL 24 Jul 08:49:43 08:51:50 13° 293° (WNW) 08:54:01 437.365/2234.400
AIST 2 24 Jul 08:57:22 09:00:16 18° 250° (WSW) 09:03:10 435.215
SRMSAT 24 Jul 08:58:44 09:02:10 16° 186° (S) 09:05:36 437.500
Cubesat XI-IV 24 Jul 09:01:06 09:05:02 21° 294° (WNW) 09:08:55 437.490
CUBEBUG 2 24 Jul 09:12:22 09:15:47 20° 93° (E) 09:19:08 437.445
YUBILEINY 24 Jul 09:16:25 09:21:36 17° 79° (E) 09:26:47 435.215
CINEMA 3 24 Jul 09:17:20 09:22:24 82° 102° (ESE) 09:27:23 145.822/145.860
RS-15 24 Jul 09:18:03 09:29:10 53° 308° (NW) 09:40:56 29.354- 29.394
HO-68 24 Jul 09:18:46 09:25:55 64° 103° (ESE) 09:33:01 435.675
PRISM 24 Jul 09:20:58 09:25:04 90° 294° (WNW) 09:29:09 437.425
SEEDS 24 Jul 09:21:47 09:25:50 48° 99° (E) 09:29:50 437.485
CUTE-I 24 Jul 09:27:32 09:29:32 12° 298° (WNW) 09:31:32 437.470
NOAA 18 24 Jul 09:34:30 09:36:24 12° 300° (WNW) 09:38:17 137.9125
COMPASS 1 24 Jul 09:40:03 09:44:07 55° 100° (E) 09:48:08 437.405
Cosmos 2491 24 Jul 09:42:58 09:51:37 62° 80° (E) 10:00:17 435.465 / 435.565
Oscar 11 24 Jul 09:54:21 09:57:48 23° 95° (E) 10:01:14 145.826/435.025
CANX-2 24 Jul 09:57:57 10:01:46 34° 288° (WNW) 10:05:34 2200.000
ANTELSAT 24 Jul 10:04:16 10:07:36 20° 68° (ENE) 10:10:59 437.575/2403.000
AAUSAT CUBESAT 2 24 Jul 10:11:49 10:15:55 75° 283° (WNW) 10:20:00 437.432
SO-50 24 Jul 10:11:58 10:16:34 41° 305° (NW) 10:21:11 436.795
CUTE 1.7 + AOD 2 24 Jul 10:12:17 10:15:51 27° 289° (WNW) 10:19:24 437.475
M-CUBED/EXP-1 PRIME 24 Jul 10:28:40 10:32:03 20° 99° (E) 10:35:26 437.505
UWE-3 24 Jul 10:32:58 10:37:37 77° 283° (WNW) 10:42:07 435.000/436.395/437.385
ZACube-1 24 Jul 10:41:21 10:45:53 85° 102° (ESE) 10:50:18 437.345
FUNcube-1 24 Jul 10:42:21 10:46:52 81° 101° (E) 10:51:16 145.935
TIGRISAT 24 Jul 10:45:38 10:50:05 54° 74° (ENE) 10:54:38 435.000
CUBEBUG 2 24 Jul 10:48:09 10:52:27 35° 289° (WNW) 10:56:40 437.445
HUMSAT D 24 Jul 10:50:44 10:53:49 20° 94° (E) 10:56:51 437.325/437.525
AUBIESAT-1 24 Jul 10:57:08 11:01:18 32° 102° (ESE) 11:05:26 437.475
CINEMA 3 24 Jul 10:57:45 10:58:46 11° 297° (WNW) 10:59:47 145.822/145.860
SEEDS 24 Jul 10:59:30 11:01:04 12° 294° (WNW) 11:02:37 437.485
UNISAT 6 24 Jul 11:00:42 11:05:17 86° 77° (ENE) 11:09:58 437.425
DELFI C3 24 Jul 11:03:08 11:07:03 66° 100° (E) 11:10:57 145.870
HO-68 24 Jul 11:07:42 11:13:00 23° 299° (WNW) 11:18:18 435.675
YUBILEINY 24 Jul 11:08:26 11:17:12 82° 277° (W) 11:26:05 435.215
Cosmos 2504 24 Jul 11:08:48 11:16:29 35° 86° (E) 11:24:15 435.465 / 435.565
COMPASS 1 24 Jul 11:18:30 11:19:08 10° 295° (WNW) 11:19:48 437.405
NANOSAT C BR1 24 Jul 11:20:25 11:23:18 18° 68° (ENE) 11:26:13 145.865
DUCHIFAT 1 24 Jul 11:26:12 11:29:14 20° 69° (ENE) 11:32:19 145.980
Oscar 11 24 Jul 11:30:18 11:33:51 25° 290° (WNW) 11:37:21 145.826/435.025
RS-15 24 Jul 11:37:51 11:45:28 19° 338° (NNW) 11:53:19 29.354- 29.394
QB50P1 24 Jul 11:39:50 11:43:35 32° 72° (ENE) 11:47:23 145.935-145.965
ANTELSAT 24 Jul 11:39:51 11:44:01 35° 263° (W) 11:48:17 437.575/2403.000
Cosmos 2491 24 Jul 11:41:07 11:47:43 25° 277° (W) 11:54:20 435.465 / 435.565
POPSAT HIP 1 24 Jul 11:45:47 11:49:41 37° 72° (ENE) 11:53:37 437.405
BUGSAT 1 24 Jul 11:55:05 11:57:48 17° 68° (ENE) 12:00:32 437.445
JAS-2 24 Jul 12:00:21 12:04:55 22° 67° (ENE) 12:09:08 435.910
M-CUBED/EXP-1 PRIME 24 Jul 12:02:15 12:06:36 39° 292° (WNW) 12:10:58 437.505
QB50P2 24 Jul 12:05:29 12:09:41 72° 77° (ENE) 12:13:57 145.880/145.840
POLYITAN 1 24 Jul 12:08:06 12:12:20 73° 77° (ENE) 12:16:36 437.675
ESTCUBE 1 24 Jul 12:08:49 12:12:33 25° 96° (E) 12:16:15 437.505/2401.250
TIGRISAT 24 Jul 12:25:09 12:27:03 12° 269° (W) 12:28:59 435.000
HUMSAT D 24 Jul 12:25:50 12:29:25 27° 289° (WNW) 12:32:56 437.325/437.525
AUBIESAT-1 24 Jul 12:31:50 12:35:31 24° 296° (WNW) 12:39:12 437.475
VELOX 1 24 Jul 12:39:26 12:43:23 31° 97° (E) 12:47:21 145.980
CUBEBUG 1 24 Jul 12:49:10 12:53:25 48° 100° (E) 12:57:41 437.445
NANOSAT C BR1 24 Jul 12:55:01 12:58:46 31° 263° (W) 13:02:35 145.865
SPROUT 24 Jul 12:59:23 13:02:54 24° 96° (E) 13:06:22 437.525
DUCHIFAT 1 24 Jul 13:01:03 13:04:43 29° 263° (W) 13:08:25 145.980
Cosmos 2504 24 Jul 13:01:10 13:09:32 47° 283° (WNW) 13:18:02 435.465 / 435.565
Oscar 19 24 Jul 13:03:07 13:06:44 20° 66° (ENE) 13:10:21 437.125/150
YUBILEINY 24 Jul 13:11:08 13:15:22 14° 296° (WNW) 13:19:40 435.215
QB50P1 24 Jul 13:16:34 13:19:24 17° 266° (W) 13:22:16 145.935-145.965
50 SAT 24 Jul 13:19:28 13:23:03 67° 284° (WNW) 13:26:36 437.505
POPSAT HIP 1 24 Jul 13:23:07 13:25:34 15° 267° (W) 13:28:04 437.405
AISAT 24 Jul 13:23:31 13:27:58 73° 284° (WNW) 13:32:24 437.250
BUGSAT 1 24 Jul 13:29:20 13:32:54 30° 262° (W) 13:36:33 437.445
DX 1 24 Jul 13:34:52 13:39:15 80° 283° (WNW) 13:43:36 434.975-435.025
AIST 1 24 Jul 13:34:58 13:37:43 17° 87° (E) 13:40:27
JAS-2 24 Jul 13:43:33 13:49:44 48° 259° (W) 13:55:15 435.910
ESTCUBE 1 24 Jul 13:45:35 13:49:13 25° 290° (WNW) 13:52:52 437.505/2401.250
UKube-1 24 Jul 13:54:52 13:59:08 59° 285° (WNW) 14:03:21 .
Gurwin Techsat 1B 24 Jul 13:56:13 14:00:44 29° 69° (ENE) 14:05:15 435.225
RS-15 24 Jul 13:58:15 14:05:16 16° 16° (NNE) 14:12:19 29.354- 29.394
TISAT 1 24 Jul 14:06:32 14:10:20 31° 98° (E) 14:14:07 437.305
AO-85 24 Jul 14:06:42 14:10:42 21° 109° (ESE) 14:14:36 145.980
VELOX 1 24 Jul 14:16:22 14:19:38 20° 292° (WNW) 14:22:53 145.980
CUBEBUG 1 24 Jul 14:27:08 14:29:15 13° 294° (WNW) 14:31:23 437.445
ITAMSAT 1 24 Jul 14:30:14 14:33:57 20° 66° (ENE) 14:37:40 435.822/435.867
BEESAT 24 Jul 14:34:26 14:35:28 11° 91° (E) 14:36:30 436.000
SPROUT 24 Jul 14:35:12 14:38:44 25° 290° (WNW) 14:42:14 437.525
Oscar 19 24 Jul 14:40:51 14:45:41 43° 261° (W) 14:50:34 437.125/150
ITUPSAT 1 24 Jul 14:53:23 14:56:38 18° 94° (E) 14:59:52 437.325
AO-7 24 Jul 15:06:30 15:13:39 33° 61° (ENE) 15:20:48 29.400- 29.500
AIST 1 24 Jul 15:11:16 15:15:01 30° 282° (WNW) 15:18:47
GONETS M04 24 Jul 15:18:03 15:24:48 26° 83° (E) 15:31:35
Gurwin Techsat 1B 24 Jul 15:35:54 15:40:33 30° 263° (W) 15:45:13 435.225
TISAT 1 24 Jul 15:42:45 15:45:44 19° 292° (WNW) 15:48:43 437.305
AO-85 24 Jul 15:45:40 15:50:53 48° 303° (WNW) 15:55:55 145.980
SWISSCUBE 24 Jul 15:47:06 15:51:52 82° 102° (ESE) 15:56:37 437.505
ITAMSAT 1 24 Jul 16:08:04 16:13:03 45° 260° (W) 16:18:03 435.822/435.867
BEESAT 24 Jul 16:08:54 16:13:38 65° 286° (WNW) 16:18:19 436.000
Cosmos 2499 24 Jul 16:09:57 16:18:08 44° 88° (E) 16:26:17 435.465 / 435.565
RS-15 24 Jul 16:10:57 16:22:31 43° 47° (NE) 16:33:54 29.354- 29.394
DANDE 24 Jul 16:19:12 16:21:30 27° 79° (E) 16:23:58 436.750
CUSAT 1 24 Jul 16:25:24 16:28:09 35° 263° (W) 16:31:29 437.405
ITUPSAT 1 24 Jul 16:30:09 16:34:35 39° 288° (WNW) 16:38:58 437.325
AO-7 24 Jul 16:57:55 17:06:00 53° 258° (WSW) 17:14:09 29.400- 29.500
KKS-1 24 Jul 17:05:21 17:09:47 56° 101° (E) 17:14:11 437.445
GONETS M04 24 Jul 17:12:28 17:20:57 58° 280° (W) 17:29:32
MOZHAYETS 4 24 Jul 17:17:15 17:21:50 84° 101° (E) 17:26:24
HORYU 2 24 Jul 17:24:25 17:28:49 60° 74° (ENE) 17:33:16 437.375
CUTE-I 24 Jul 17:28:24 17:29:43 11° 61° (ENE) 17:31:03 437.470
NOAA 18 24 Jul 17:36:49 17:39:48 15° 62° (ENE) 17:42:48 137.9125
STARS 24 Jul 17:52:28 17:56:56 86° 284° (WNW) 18:01:21 437.465
NOAA 15 24 Jul 17:55:12 17:59:34 28° 68° (ENE) 18:03:58 137.62
GOMX 1 24 Jul 18:00:29 18:01:48 11° 65° (ENE) 18:03:08 467.674
Cosmos 2499 24 Jul 18:03:11 18:11:15 38° 285° (WNW) 18:19:16 435.465 / 435.565
BRITE-PL 24 Jul 18:17:53 18:21:55 46° 74° (ENE) 18:25:53 437.365/2234.400
RS-15 24 Jul 18:23:29 18:35:27 59° 249° (WSW) 18:47:10 29.354- 29.394
CUBESAT XI-V 24 Jul 18:28:18 18:32:50 55° 100° (E) 18:37:20 437.345
PHONESAT 2.4 24 Jul 18:37:38 18:40:37 50° 153° (SSE) 18:43:38 2401.200-2431.200
Cubesat XI-IV 24 Jul 18:39:07 18:44:20 54° 72° (ENE) 18:49:35 437.490
KKS-1 24 Jul 18:44:00 18:45:49 12° 295° (WNW) 18:47:38 437.445
SO-50 24 Jul 18:46:04 18:50:42 80° 59° (ENE) 18:55:10 436.795
LilacSat-2 24 Jul 19:02:19 19:06:10 85° 262° (W) 19:10:04 437.200
CUTE-I 24 Jul 19:03:35 19:08:58 87° 256° (WSW) 19:14:23 437.470
HORYU 2 24 Jul 19:04:58 19:05:42 10° 268° (W) 19:06:27 437.375
NOAA 18 24 Jul 19:14:20 19:19:49 68° 258° (WSW) 19:25:21 137.9125
CUTE 1.7 + AOD 2 24 Jul 19:28:57 19:29:55 11° 65° (ENE) 19:30:54 437.475
NOAA 15 24 Jul 19:34:35 19:39:12 31° 263° (W) 19:43:51 137.62
GOMX 1 24 Jul 19:35:25 19:39:25 49° 261° (W) 19:43:31 467.674
BEESAT 3 24 Jul 19:36:27 19:40:16 57° 116° (ESE) 19:44:08 437.485
BEESAT 2 24 Jul 19:37:05 19:40:27 28° 113° (ESE) 19:43:52 435.950
DOVE 4 24 Jul 19:43:01 19:47:12 80° 76° (ENE) 19:51:35 437.250
HO-68 24 Jul 19:44:26 19:50:46 35° 65° (ENE) 19:57:07 435.675
BRITE-PL 24 Jul 19:59:40 20:00:40 11° 268° (W) 20:01:40 437.365/2234.400
CUBESAT XI-V 24 Jul 20:07:36 20:09:42 13° 295° (WNW) 20:11:48 437.345
CUBEBUG 2 24 Jul 20:09:06 20:10:49 12° 64° (ENE) 20:12:34 437.445
SEEDS 24 Jul 20:10:56 20:14:19 23° 70° (ENE) 20:17:41 437.485
PHONESAT 2.4 24 Jul 20:14:16 20:17:12 39° 348° (NNW) 20:20:08 2401.200-2431.200
CINEMA 3 24 Jul 20:15:57 20:20:11 49° 74° (ENE) 20:24:39 145.822/145.860
Cubesat XI-IV 24 Jul 20:21:25 20:24:41 16° 267° (W) 20:27:57 437.490
STRAND 1 24 Jul 20:23:15 20:28:12 49° 100° (E) 20:33:07 437.568
COMPASS 1 24 Jul 20:28:10 20:31:36 25° 71° (ENE) 20:35:03 437.405
PCSat 24 Jul 20:41:31 20:46:56 86° 296° (WNW) 20:52:23 145.827
CANX-2 24 Jul 20:46:54 20:51:11 75° 259° (W) 20:55:29 2200.000
Oscar 11 24 Jul 20:47:31 20:49:39 13° 66° (ENE) 20:51:47 145.826/435.025
Cosmos 2491 24 Jul 20:50:40 20:53:20 12° 76° (ENE) 20:56:00 435.465 / 435.565
AAUSAT CUBESAT 2 24 Jul 20:58:48 21:02:47 46° 74° (ENE) 21:06:46 437.432
CUTE 1.7 + AOD 2 24 Jul 21:01:00 21:05:13 58° 260° (W) 21:09:27 437.475
O/OREOS (USA 219) 24 Jul 21:04:47 21:08:26 25° 102° (ESE) 21:12:06 437.305
PRISM 24 Jul 21:06:44 21:09:05 15° 94° (E) 21:11:27 437.425
M-CUBED/EXP-1 PRIME 24 Jul 21:14:08 21:15:35 12° 60° (ENE) 21:17:04 437.505
AIST 2 24 Jul 21:14:39 21:16:46 14° 108° (ESE) 21:18:54 435.215
BEESAT 2 24 Jul 21:15:12 21:18:16 21° 308° (NW) 21:21:21 435.950
BEESAT 3 24 Jul 21:16:41 21:18:17 12° 313° (NW) 21:19:54 437.485
YUBILEINY 24 Jul 21:22:39 21:31:00 44° 76° (ENE) 21:39:15 435.215
UWE-3 24 Jul 21:26:23 21:30:49 59° 75° (ENE) 21:35:22 435.000/436.395/437.385
HO-68 24 Jul 21:31:41 21:38:18 40° 261° (W) 21:44:59 435.675
ZACube-1 24 Jul 21:33:43 21:37:59 45° 73° (ENE) 21:42:21 437.345
FUNcube-1 24 Jul 21:34:28 21:38:42 42° 73° (ENE) 21:43:00 145.935
ISS 24 Jul 21:39:02 21:41:06 16° 128° (SE) 21:43:11 145.825
AUBIESAT-1 24 Jul 21:41:12 21:44:01 21° 63° (ENE) 21:46:59 437.475
HUMSAT D 24 Jul 21:41:22 21:42:13 10° 65° (ENE) 21:43:04 437.325/437.525
CUBEBUG 2 24 Jul 21:42:23 21:46:49 60° 260° (W) 21:51:26 437.445
SEEDS 24 Jul 21:46:27 21:49:53 24° 264° (W) 21:53:20 437.485
DELFI C3 24 Jul 21:46:27 21:49:43 25° 71° (ENE) 21:52:58 145.870
PHONESAT 2.4 24 Jul 21:51:16 21:54:06 32° 5° (N) 21:56:55 2401.200-2431.200
CINEMA 3 24 Jul 21:55:43 21:57:38 13° 269° (W) 21:59:37 145.822/145.860
STRAND 1 24 Jul 22:03:40 22:06:56 17° 295° (WNW) 22:10:13 437.568
COMPASS 1 24 Jul 22:03:50 22:07:05 22° 265° (W) 22:10:20 437.405
Oscar 11 24 Jul 22:21:09 22:25:21 47° 261° (W) 22:29:33 145.826/435.025
PCSat 24 Jul 22:28:54 22:31:07 12° 314° (NW) 22:33:20 145.827
AAUSAT CUBESAT 2 24 Jul 22:36:59 22:38:28 12° 268° (W) 22:39:57 437.432
Cosmos 2491 24 Jul 22:39:55 22:48:36 78° 94° (E) 22:57:19 435.465 / 435.565
PRISM 24 Jul 22:40:45 22:44:29 35° 288° (WNW) 22:48:12 437.425
TIGRISAT 24 Jul 22:41:48 22:44:20 15° 92° (E) 22:46:49 435.000
O/OREOS (USA 219) 24 Jul 22:44:03 22:47:44 25° 298° (WNW) 22:51:25 437.305
M-CUBED/EXP-1 PRIME 24 Jul 22:46:13 22:49:37 42° 257° (WSW) 22:53:20 437.505
AIST 2 24 Jul 22:50:56 22:54:50 42° 303° (WNW) 22:58:47 435.215
UNISAT 6 24 Jul 22:56:15 22:59:55 23° 95° (E) 23:03:30 437.425
Cosmos 2504 24 Jul 22:57:57 23:06:00 58° 79° (E) 23:13:26 435.465 / 435.565
ESTCUBE 1 24 Jul 23:06:15 23:09:11 17° 67° (ENE) 23:12:07 437.505/2401.250
UWE-3 24 Jul 23:06:22 23:07:37 11° 270° (W) 23:08:53 435.000/436.395/437.385
ZACube-1 24 Jul 23:12:02 23:14:28 14° 268° (W) 23:16:57 437.345
FUNcube-1 24 Jul 23:12:30 23:15:07 15° 268° (W) 23:17:44 145.935
HUMSAT D 24 Jul 23:13:01 23:17:16 61° 259° (W) 23:21:33 437.325/437.525
ISS 24 Jul 23:14:13 23:17:17 39° 323° (NW) 23:20:22 145.825
AUBIESAT-1 24 Jul 23:15:24 23:18:21 23° 260° (W) 23:21:29 437.475
YUBILEINY 24 Jul 23:19:46 23:27:32 36° 274° (W) 23:35:17 435.215
DELFI C3 24 Jul 23:21:32 23:24:30 20° 265° (W) 23:27:28 145.870
PHONESAT 2.4 24 Jul 23:27:45 23:30:50 84° 23° (NNE) 23:33:54 2401.200-2431.200
ANTELSAT 24 Jul 23:34:07 23:38:44 62° 101° (E) 23:43:13 437.575/2403.000
VELOX 1 24 Jul 23:34:31 23:37:41 20° 68° (ENE) 23:40:52 145.980
CUBEBUG 1 24 Jul 23:42:32 23:46:11 27° 70° (ENE) 23:49:50 437.445
SPROUT 24 Jul 23:51:31 23:53:33 13° 66° (ENE) 23:55:34 437.525
50 SAT 24 Jul 23:54:10 23:57:25 31° 73° (ENE) 00:00:40 437.505
QB50P2 24 Jul 23:54:49 23:57:15 15° 93° (E) 23:59:40 145.880/145.840
POLYITAN 1 24 Jul 23:57:24 23:59:55 15° 93° (E) 00:02:23 437.675
TIGRISAT 25 Jul 00:16:47 00:21:14 45° 287° (WNW) 00:25:34 435.000
AISAT 25 Jul 00:17:39 00:21:59 67° 76° (ENE) 00:26:21 437.250
AO-85 25 Jul 00:20:50 00:25:09 67° 59° (ENE) 00:29:07 145.980
DX 1 25 Jul 00:27:12 00:31:26 59° 75° (ENE) 00:35:42 434.975-435.025
UNISAT 6 25 Jul 00:32:34 00:36:35 29° 290° (WNW) 00:40:30 437.425
Cosmos 2491 25 Jul 00:40:31 00:46:21 19° 293° (WNW) 00:52:12 435.465 / 435.565
ESTCUBE 1 25 Jul 00:41:28 00:45:40 38° 262° (W) 00:49:52 437.505/2401.250
NANOSAT C BR1 25 Jul 00:41:49 00:45:58 48° 100° (E) 00:50:04 145.865
UKube-1 25 Jul 00:46:02 00:50:19 78° 76° (ENE) 00:54:38 .
DUCHIFAT 1 25 Jul 00:47:26 00:51:37 52° 100° (E) 00:55:45 145.980
Cosmos 2504 25 Jul 00:52:37 00:58:37 24° 278° (W) 01:04:20 435.465 / 435.565
JAS-2 25 Jul 00:55:50 00:59:51 21° 96° (E) 01:04:06 435.910
TISAT 1 25 Jul 00:56:18 00:58:55 16° 68° (ENE) 01:01:34 437.305
QB50P1 25 Jul 01:02:30 01:06:49 88° 277° (W) 01:11:05 145.935-145.965
PHONESAT 2.4 25 Jul 01:05:05 01:07:03 16° 216° (SW) 01:09:00 2401.200-2431.200
POPSAT HIP 1 25 Jul 01:08:42 01:13:00 75° 284° (WNW) 01:17:16 437.405
VELOX 1 25 Jul 01:10:02 01:13:54 31° 262° (W) 01:17:49 145.980
ANTELSAT 25 Jul 01:13:09 01:14:49 12° 296° (WNW) 01:16:29 437.575/2403.000
BUGSAT 1 25 Jul 01:13:25 01:17:30 44° 99° (E) 01:21:33 437.445
CUBEBUG 1 25 Jul 01:19:09 01:22:25 21° 265° (W) 01:25:43 437.445
AIST 1 25 Jul 01:20:37 01:24:47 44° 80° (E) 01:28:56
SPROUT 25 Jul 01:24:57 01:29:02 46° 261° (W) 01:33:11 437.525
QB50P2 25 Jul 01:29:11 01:33:10 39° 287° (WNW) 01:37:09 145.880/145.840
50 SAT 25 Jul 01:29:17 01:31:06 13° 266° (W) 01:32:56 437.505
POLYITAN 1 25 Jul 01:31:50 01:35:50 38° 287° (WNW) 01:39:47 437.675
ITUPSAT 1 25 Jul 01:57:50 02:00:47 16° 65° (ENE) 02:03:44 437.325
Gurwin Techsat 1B 25 Jul 02:16:36 02:19:19 14° 92° (E) 02:22:00 435.225
NANOSAT C BR1 25 Jul 02:19:19 02:21:14 13° 294° (WNW) 02:23:08 145.865
DUCHIFAT 1 25 Jul 02:25:15 02:26:48 12° 295° (WNW) 02:28:21 145.980
TISAT 1 25 Jul 02:30:26 02:34:15 35° 262° (W) 02:38:07 437.305
JAS-2 25 Jul 02:40:08 02:45:02 40° 288° (WNW) 02:50:17 435.910
BUGSAT 1 25 Jul 02:50:18 02:52:27 14° 294° (WNW) 02:54:36 437.445
SWISSCUBE 25 Jul 02:50:20 02:55:05 67° 75° (ENE) 02:59:51 437.505
Oscar 19 25 Jul 02:54:56 03:00:08 84° 102° (ESE) 03:05:19 437.125/150
JUGNU 25 Jul 02:58:32 03:00:34 12° 167° (SSE) 03:02:35 437.505
AIST 1 25 Jul 03:00:10 03:01:54 12° 274° (W) 03:03:38
BEESAT 25 Jul 03:11:59 03:16:46 80° 257° (WSW) 03:21:35 436.000
GONETS M04 25 Jul 03:26:05 03:34:48 63° 80° (E) 03:43:32
ITUPSAT 1 25 Jul 03:33:34 03:38:12 47° 260° (W) 03:42:51 437.325
CUSAT 1 25 Jul 03:45:16 03:47:58 15° 95° (E) 03:50:19 437.405
Gurwin Techsat 1B 25 Jul 03:54:22 03:59:36 61° 286° (WNW) 04:04:49 435.225
BEESAT 3 25 Jul 03:57:29 03:59:45 15° 49° (NE) 04:02:00 437.485
Cosmos 2499 25 Jul 03:58:07 04:05:59 71° 81° (E) 04:13:14 435.465 / 435.565
KKS-1 25 Jul 04:00:33 04:04:34 35° 71° (ENE) 04:08:36 437.445
ISS 25 Jul 04:09:47 04:10:14 10° 22° (NNE) 04:10:40 145.825
